• In Czech Republic
  • List of Countries
  • For 7 days
  • Water Temperature
  • Satellite Maps
  • Weather Map
  • Weather Widgets
  • user-avatar
    Login

    Hourly Weather Kurşunlu

    Today, 23 October, Monday

    Time Temperature Precipitation Wind Pressure Humidity
    00:00 +9°C° 0 mm 1 mps 662 mmHg 80%
    01:00 +9°C° 0 mm 1 mps 661 mmHg 80%
    02:00 +8°C° 0 mm 1 mps 661 mmHg 82%
    03:00 +8°C° 0 mm 1 mps 661 mmHg 81%
    04:00 +8°C° 0 mm 1 mps 661 mmHg 80%
    05:00 +8°C° 0 mm 1 mps 661 mmHg 79%
    06:00 +9°C° 0 mm 1 mps 661 mmHg 74%
    07:00 +10°C° 0 mm 1 mps 661 mmHg 68%
    08:00 +12°C° 0 mm 1 mps 661 mmHg 62%
    09:00 +14°C° 0 mm 2 mps 661 mmHg 55%
    10:00 +15°C° 0 mm 2 mps 662 mmHg 48%
    11:00 +17°C° 0 mm 3 mps 662 mmHg 41%
    12:00 +18°C° 0 mm 3 mps 662 mmHg 38%
    13:00 +18°C° 0 mm 3 mps 661 mmHg 36%
    14:00 +19°C° 0 mm 3 mps 661 mmHg 33%
    15:00 +17°C° 0 mm 3 mps 660 mmHg 37%
    16:00 +16°C° 0 mm 2 mps 660 mmHg 40%
    17:00 +15°C° 0 mm 2 mps 659 mmHg 44%
    18:00 +14°C° 0 mm 2 mps 659 mmHg 45%
    19:00 +13°C° 0 mm 2 mps 659 mmHg 46%
    20:00 +13°C° 0 mm 2 mps 658 mmHg 48%
    21:00 +12°C° 0 mm 2 mps 658 mmHg 48%
    22:00 +12°C° 0 mm 2 mps 658 mmHg 48%
    23:00 +12°C° 0 mm 2 mps 658 mmHg 48%

    Tomorrow, 24 October, Tuesday

    Time Temperature Precipitation Wind Pressure Humidity
    00:00 +12°C° 0 mm 2 mps 658 mmHg 48%
    01:00 +10°C° 0 mm 2 mps 657 mmHg 48%
    02:00 +10°C° 0 mm 2 mps 657 mmHg 48%
    03:00 +10°C° 0 mm 2 mps 657 mmHg 49%
    04:00 +10°C° 0 mm 2 mps 657 mmHg 50%
    05:00 +9°C° 0 mm 2 mps 657 mmHg 51%
    06:00 +10°C° 0 mm 2 mps 657 mmHg 51%
    07:00 +12°C° 0 mm 2 mps 658 mmHg 51%
    08:00 +13°C° 0 mm 2 mps 658 mmHg 51%
    09:00 +13°C° 0 mm 3 mps 659 mmHg 47%
    10:00 +16°C° 0 mm 3 mps 659 mmHg 44%
    11:00 +17°C° 0 mm 4 mps 660 mmHg 40%
    12:00 +18°C° 0 mm 4 mps 660 mmHg 38%
    13:00 +19°C° 0 mm 4 mps 660 mmHg 36%
    14:00 +19°C° 0 mm 5 mps 660 mmHg 34%
    15:00 +18°C° 0 mm 4 mps 659 mmHg 38%
    16:00 +17°C° 0 mm 3 mps 659 mmHg 41%
    17:00 +15°C° 0 mm 2 mps 659 mmHg 45%
    18:00 +15°C° 0 mm 2 mps 659 mmHg 45%
    19:00 +15°C° 0 mm 2 mps 659 mmHg 46%
    20:00 +14°C° 0 mm 1 mps 660 mmHg 47%
    21:00 +14°C° 0 mm 1 mps 660 mmHg 48%
    22:00 +14°C° 0 mm 1 mps 660 mmHg 49%
    23:00 +13°C° 0 mm 1 mps 660 mmHg 51%

    Day after tomorrow, 25 October, Wednesday

    Time Temperature Precipitation Wind Pressure Humidity
    00:00 +13°C° 0 mm 1 mps 660 mmHg 51%
    01:00 +13°C° 0 mm 1 mps 660 mmHg 52%
    02:00 +13°C° 0 mm 1 mps 660 mmHg 53%
    03:00 +13°C° 0.3 mm 1 mps 660 mmHg 55%
    04:00 +12°C° 0.3 mm 1 mps 660 mmHg 58%
    05:00 +12°C° 0.3 mm 1 mps 660 mmHg 60%
    06:00 +12°C° 0.2 mm 1 mps 661 mmHg 62%
    07:00 +12°C° 0.2 mm 1 mps 661 mmHg 64%
    08:00 +12°C° 0.2 mm 1 mps 662 mmHg 65%
    09:00 +13°C° 0.4 mm 1 mps 662 mmHg 66%
    10:00 +13°C° 0.4 mm 2 mps 662 mmHg 66%
    11:00 +14°C° 0.4 mm 2 mps 662 mmHg 67%
    12:00 +13°C° 2 mm 2 mps 662 mmHg 71%
    13:00 +13°C° 2 mm 2 mps 662 mmHg 75%
    14:00 +12°C° 2 mm 2 mps 662 mmHg 79%
    15:00 +12°C° 0.3 mm 1 mps 662 mmHg 79%
    16:00 +12°C° 0.3 mm 1 mps 662 mmHg 80%
    17:00 +12°C° 0.3 mm 1 mps 663 mmHg 80%
    18:00 +11°C° 0.4 mm 1 mps 663 mmHg 82%
    19:00 +11°C° 0.4 mm 1 mps 663 mmHg 85%
    20:00 +11°C° 0.4 mm 1 mps 663 mmHg 87%
    21:00 +10°C° 0.1 mm 0 mps 664 mmHg 87%
    22:00 +10°C° 0.1 mm 0 mps 664 mmHg 88%
    23:00 +10°C° 0.1 mm 0 mps 664 mmHg 88%

    26 October, Thursday

    Time Temperature Precipitation Wind Pressure Humidity
    00:00 +9°C° 0.5 mm 0 mps 664 mmHg 89%
    01:00 +9°C° 0.5 mm 0 mps 664 mmHg 90%
    02:00 +10°C° 0.5 mm 1 mps 664 mmHg 91%
    03:00 +10°C° 0.5 mm 1 mps 664 mmHg 92%
    04:00 +10°C° 0.5 mm 1 mps 664 mmHg 92%
    05:00 +10°C° 0.5 mm 1 mps 665 mmHg 93%
    06:00 +10°C° 0.7 mm 1 mps 665 mmHg 92%
    07:00 +10°C° 0.7 mm 1 mps 665 mmHg 91%
    08:00 +10°C° 0.7 mm 1 mps 666 mmHg 90%
    09:00 +11°C° 0.5 mm 1 mps 666 mmHg 88%
    10:00 +11°C° 0.5 mm 1 mps 666 mmHg 86%
    11:00 +11°C° 0.5 mm 1 mps 666 mmHg 84%
    12:00 +11°C° 0.3 mm 1 mps 666 mmHg 83%
    13:00 +12°C° 0.3 mm 2 mps 666 mmHg 81%
    14:00 +12°C° 0.3 mm 2 mps 666 mmHg 80%
    15:00 +10°C° 0.1 mm 2 mps 667 mmHg 82%
    16:00 +10°C° 0.1 mm 2 mps 667 mmHg 83%
    17:00 +10°C° 0.1 mm 2 mps 667 mmHg 85%
    18:00 +9°C° 0 mm 2 mps 667 mmHg 86%
    19:00 +9°C° 0 mm 2 mps 667 mmHg 87%
    20:00 +10°C° 0 mm 1 mps 667 mmHg 89%
    21:00 +9°C° 0 mm 1 mps 667 mmHg 89%
    22:00 +9°C° 0 mm 1 mps 667 mmHg 90%
    23:00 +9°C° 0 mm 1 mps 667 mmHg 91%

    27 October, Friday

    Time Temperature Precipitation Wind Pressure Humidity
    00:00 +8°C° 0 mm 1 mps 667 mmHg 91%
    01:00 +8°C° 0 mm 1 mps 667 mmHg 91%
    02:00 +8°C° 0 mm 1 mps 666 mmHg 91%
    03:00 +8°C° 0 mm 1 mps 666 mmHg 91%
    04:00 +6°C° 0 mm 0 mps 666 mmHg 91%
    05:00 +6°C° 0 mm 0 mps 666 mmHg 92%
    06:00 +7°C° 0 mm 0 mps 666 mmHg 88%
    07:00 +7°C° 0 mm 0 mps 666 mmHg 85%
    08:00 +8°C° 0 mm 0 mps 666 mmHg 81%
    09:00 +10°C° 0 mm 1 mps 666 mmHg 75%
    10:00 +12°C° 0 mm 1 mps 666 mmHg 69%
    11:00 +13°C° 0 mm 1 mps 666 mmHg 62%
    12:00 +14°C° 0 mm 1 mps 666 mmHg 60%
    13:00 +14°C° 0 mm 1 mps 665 mmHg 57%
    14:00 +15°C° 0 mm 1 mps 665 mmHg 54%
    15:00 +14°C° 0 mm 1 mps 664 mmHg 59%
    16:00 +13°C° 0 mm 1 mps 663 mmHg 64%
    17:00 +11°C° 0 mm 1 mps 663 mmHg 69%
    18:00 +11°C° 0 mm 1 mps 662 mmHg 72%
    19:00 +10°C° 0 mm 1 mps 662 mmHg 76%
    20:00 +10°C° 0 mm 1 mps 662 mmHg 79%
    21:00 +9°C° 0 mm 1 mps 661 mmHg 80%
    22:00 +9°C° 0 mm 1 mps 661 mmHg 81%
    23:00 +9°C° 0 mm 1 mps 661 mmHg 82%

    28 October, Saturday

    Time Temperature Precipitation Wind Pressure Humidity
    00:00 +9°C° 0 mm 1 mps 660 mmHg 83%
    01:00 +8°C° 0 mm 1 mps 660 mmHg 84%
    02:00 +8°C° 0 mm 1 mps 660 mmHg 84%
    03:00 +8°C° 0 mm 1 mps 659 mmHg 85%
    04:00 +8°C° 0 mm 1 mps 659 mmHg 85%
    05:00 +8°C° 0 mm 1 mps 659 mmHg 85%
    06:00 +9°C° 0 mm 1 mps 659 mmHg 82%
    07:00 +10°C° 0 mm 1 mps 659 mmHg 78%
    08:00 +10°C° 0 mm 1 mps 659 mmHg 75%
    09:00 +12°C° 0 mm 2 mps 660 mmHg 68%
    10:00 +13°C° 0 mm 2 mps 660 mmHg 60%
    11:00 +14°C° 0 mm 3 mps 660 mmHg 53%
    12:00 +14°C° 0 mm 3 mps 660 mmHg 51%
    13:00 +16°C° 0 mm 3 mps 659 mmHg 49%
    14:00 +15°C° 0 mm 4 mps 659 mmHg 46%
    15:00 +14°C° 0 mm 3 mps 659 mmHg 52%
    16:00 +13°C° 0 mm 3 mps 658 mmHg 57%
    17:00 +13°C° 0 mm 2 mps 658 mmHg 62%
    18:00 +12°C° 0 mm 2 mps 658 mmHg 66%
    19:00 +12°C° 0 mm 1 mps 658 mmHg 69%
    20:00 +11°C° 0 mm 1 mps 658 mmHg 73%
    21:00 +11°C° 0 mm 1 mps 658 mmHg 75%
    22:00 +10°C° 0 mm 1 mps 658 mmHg 77%
    23:00 +9°C° 0 mm 0 mps 658 mmHg 79%

    29 October, Sunday

    Time Temperature Precipitation Wind Pressure Humidity
    00:00 +9°C° 0 mm 0 mps 658 mmHg 80%
    01:00 +8°C° 0 mm 0 mps 658 mmHg 81%
    02:00 +8°C° 0 mm 0 mps 658 mmHg 82%
    03:00 +8°C° 0 mm 0 mps 658 mmHg 81%
    04:00 +9°C° 0 mm 1 mps 658 mmHg 81%
    05:00 +9°C° 0 mm 1 mps 658 mmHg 80%
    06:00 +10°C° 0 mm 1 mps 658 mmHg 76%
    07:00 +10°C° 0 mm 1 mps 658 mmHg 72%
    08:00 +10°C° 0 mm 2 mps 658 mmHg 68%
    09:00 +12°C° 0 mm 2 mps 658 mmHg 62%
    10:00 +13°C° 0 mm 3 mps 658 mmHg 55%
    11:00 +14°C° 0 mm 4 mps 657 mmHg 49%
    12:00 +14°C° 0.1 mm 5 mps 657 mmHg 48%
    13:00 +14°C° 0.1 mm 5 mps 656 mmHg 48%
    14:00 +14°C° 0.1 mm 6 mps 655 mmHg 47%
    15:00 +14°C° 0.1 mm 5 mps 655 mmHg 51%
    16:00 +13°C° 0.1 mm 4 mps 654 mmHg 55%
    17:00 +12°C° 0.1 mm 4 mps 654 mmHg 59%
    18:00 +11°C° 0.2 mm 3 mps 653 mmHg 64%
    19:00 +10°C° 0.2 mm 3 mps 653 mmHg 68%
    20:00 +10°C° 0.2 mm 3 mps 653 mmHg 73%
    21:00 +9°C° 2.9 mm 3 mps 653 mmHg 78%
    22:00 +9°C° 2.9 mm 2 mps 652 mmHg 83%
    23:00 +8°C° 2.9 mm 2 mps 652 mmHg 88%
    Show more